,,Stat5,,Stat1,,Stat2,,Stat3,,Stat4,,Wind1,,Wind1,
time,status,PA1M_AVG,status,PR1M_SUM,status,RH1M_AVG,status,SR1M_AVG,status,TA1M_AVG,status,W1dAve1m,status,W1sAve1m,
2002-10-11, 00:00:00,VALID,919.702,VALID,0,VALID,99.3238,VALID,-0.0339617,VALID,20.0389,VALID,232,VALID,0.692845,
2002-10-11, 00:01:00,VALID,919.679,VALID,0,VALID,99.3263,VALID,-0.0509425,VALID,20.0394,VALID,237,VALID,0.696398,
2002-10-11, 00:02:00,VALID,919.644,VALID,0,VALID,99.3238,VALID,-0.0679233,VALID,20.029,VALID,241,VALID,0.413429,
2002-10-11, 00:03:00,VALID,919.62,VALID,0,VALID,99.3314,VALID,-0.0169808,VALID,20.0489,VALID,231,VALID,0.309053,
2002-10-11, 00:04:00,VALID,919.595,VALID,0,VALID,99.3403,VALID,0,VALID,20.0484,VALID,224,VALID,0.197163,
2002-10-11, 00:05:00,VALID,919.55,VALID,0,VALID,99.3441,VALID,0,VALID,20.0551,VALID,225,VALID,0.328571,
2002-10-11, 00:06:00,VALID,919.512,VALID,0,VALID,99.3428,VALID,0,VALID,20.0451,VALID,215,VALID,0.0185268,
2002-10-11, 00:07:00,VALID,919.472,VALID,0,VALID,99.3454,VALID,0,VALID,20.0417,VALID,244,VALID,0.522675,
2002-10-11, 00:08:00,VALID,919.422,VALID,0,VALID,99.3403,VALID,0.0169808,VALID,20.029,VALID,234,VALID,0.12859,
2002-10-11, 00:09:00,VALID,919.374,VALID,0,VALID,99.3377,VALID,0,VALID,20.0193,VALID,234,VALID,0.312078,
2002-10-11, 00:10:00,VALID,919.355,VALID,0,VALID,99.353,VALID,0,VALID,20.023,VALID,236,VALID,0.141809,
2002-10-11, 00:11:00,VALID,919.333,VALID,0,VALID,99.3543,VALID,0,VALID,20.029,VALID,236,VALID,0.125,
2002-10-11, 00:12:00,VALID,919.321,VALID,0,VALID,99.3657,VALID,0,VALID,20.019,VALID,236,VALID,0,
2002-10-11, 00:13:00,VALID,919.312,VALID,0,VALID,99.3644,VALID,0,VALID,20.023,VALID,236,VALID,0,
2002-10-11, 00:14:00,VALID,919.316,VALID,0,VALID,99.3644,VALID,0,VALID,20.029,VALID,333,VALID,0.455929,
2002-10-11, 00:15:00,VALID,919.307,VALID,0,VALID,99.3644,VALID,0.0169808,VALID,20.0257,VALID,33,VALID,1.06334,
2002-10-11, 00:16:00,VALID,919.32,VALID,0,VALID,99.3632,VALID,0.0169808,VALID,19.9997,VALID,40,VALID,1.26875,
2002-10-11, 00:17:00,VALID,919.333,VALID,0,VALID,99.3543,VALID,0,VALID,19.983,VALID,40,VALID,1.38371,
2002-10-11, 00:18:00,VALID,919.343,VALID,0,VALID,99.3543,VALID,-0.0169808,VALID,19.9679,VALID,33,VALID,1.31518,
2002-10-11, 00:19:00,VALID,919.338,VALID,0,VALID,99.3606,VALID,0,VALID,19.9482,VALID,25,VALID,1.4484,
2002-10-11, 00:20:00,VALID,919.35,VALID,0,VALID,99.3454,VALID,0,VALID,19.9318,VALID,42,VALID,1.29241,
2002-10-11, 00:21:00,VALID,919.351,VALID,0,VALID,99.353,VALID,-0.0339617,VALID,19.942,VALID,21,VALID,1.56326,
2002-10-11, 00:22:00,VALID,919.328,VALID,0,VALID,99.3644,VALID,0,VALID,19.942,VALID,37,VALID,1.27998,
2002-10-11, 00:23:00,VALID,919.321,VALID,0,VALID,99.3772,VALID,0,VALID,19.9547,VALID,22,VALID,1.6098,
2002-10-11, 00:24:00,VALID,919.288,VALID,0,VALID,99.3848,VALID,0,VALID,19.9738,VALID,14,VALID,1.7893,
2002-10-11, 00:25:00,VALID,919.267,VALID,0,VALID,99.3886,VALID,0,VALID,19.9932,VALID,32,VALID,1.78433,
2002-10-11, 00:26:00,VALID,919.246,VALID,0,VALID,99.4051,VALID,0.0169808,VALID,19.9832,VALID,45,VALID,1.75966,
2002-10-11, 00:27:00,VALID,919.225,VALID,0,VALID,99.4039,VALID,0,VALID,19.9867,VALID,25,VALID,1.52384,
2002-10-11, 00:28:00,VALID,919.228,VALID,0,VALID,99.409,VALID,0.0169808,VALID,19.9867,VALID,33,VALID,1.28345,
2002-10-11, 00:29:00,VALID,919.188,VALID,0,VALID,99.4026,VALID,0,VALID,19.9803,VALID,35,VALID,1.20122,
2002-10-11, 00:30:00,VALID,919.18,VALID,0,VALID,99.4013,VALID,0,VALID,19.9929,VALID,32,VALID,1.35996,
2002-10-11, 00:31:00,VALID,919.174,VALID,0,VALID,99.4039,VALID,0.0169808,VALID,19.9905,VALID,31,VALID,1.76339,
2002-10-11, 00:32:00,VALID,919.126,VALID,0,VALID,99.395,VALID,0,VALID,19.9447,VALID,40,VALID,1.39152,
2002-10-11, 00:33:00,VALID,919.097,VALID,0,VALID,99.3975,VALID,0,VALID,19.935,VALID,35,VALID,1.14864,
2002-10-11, 00:34:00,VALID,919.066,VALID,0,VALID,99.3975,VALID,0.0169808,VALID,19.9482,VALID,356,VALID,0.76875,
2002-10-11, 00:35:00,VALID,919.039,VALID,0,VALID,99.3988,VALID,0,VALID,19.9027,VALID,336,VALID,0.690739,
2002-10-11, 00:36:00,VALID,919.01,VALID,0,VALID,99.4077,VALID,0.0339617,VALID,19.9032,VALID,305,VALID,0.609586,
2002-10-11, 00:37:00,VALID,918.976,VALID,0,VALID,99.4179,VALID,0,VALID,19.9256,VALID,288,VALID,0.377111,
2002-10-11, 00:38:00,VALID,918.972,VALID,0,VALID,99.4242,VALID,0,VALID,19.9385,VALID,280,VALID,0.111032,
2002-10-11, 00:39:00,VALID,918.966,VALID,0,VALID,99.4179,VALID,0,VALID,19.949,VALID,280,VALID,0.138775,
2002-10-11, 00:40:00,VALID,918.984,VALID,0,VALID,99.4357,VALID,0.0169808,VALID,19.9544,VALID,280,VALID,0.00246711,
2002-10-11, 00:41:00,VALID,918.983,VALID,0,VALID,99.4344,VALID,0.0169808,VALID,19.9544,VALID,280,VALID,0,
2002-10-11, 00:42:00,VALID,918.974,VALID,0,VALID,99.4255,VALID,0.0169808,VALID,19.9706,VALID,280,VALID,0.0594952,
2002-10-11, 00:43:00,VALID,918.974,VALID,0,VALID,99.4344,VALID,-0.0169808,VALID,19.9743,VALID,280,VALID,0.0190034,
2002-10-11, 00:44:00,VALID,918.965,VALID,0,VALID,99.4369,VALID,0.0169808,VALID,19.9708,VALID,280,VALID,0.0388672,
2002-10-11, 00:45:00,VALID,918.951,VALID,0,VALID,99.4344,VALID,0,VALID,19.9542,VALID,280,VALID,0,
2002-10-11, 00:46:00,VALID,918.947,VALID,0,VALID,99.4357,VALID,0,VALID,19.9539,VALID,280,VALID,0,
2002-10-11, 00:47:00,VALID,918.941,VALID,0,VALID,99.4395,VALID,0.0169808,VALID,19.9641,VALID,280,VALID,0.179276,
2002-10-11, 00:48:00,VALID,918.927,VALID,0,VALID,99.4344,VALID,0,VALID,19.977,VALID,280,VALID,0.0145089,
2002-10-11, 00:49:00,VALID,918.928,VALID,0,VALID,99.4446,VALID,0,VALID,19.9743,VALID,280,VALID,0.133003,
2002-10-11, 00:50:00,VALID,918.925,VALID,0,VALID,99.4318,VALID,0,VALID,19.9482,VALID,280,VALID,0.0380068,
2002-10-11, 00:51:00,VALID,918.939,VALID,0,VALID,99.4446,VALID,0,VALID,19.9321,VALID,280,VALID,0.0918497,
2002-10-11, 00:52:00,VALID,918.939,VALID,0,VALID,99.4433,VALID,0,VALID,19.9514,VALID,280,VALID,0.204309,
2002-10-11, 00:53:00,VALID,918.943,VALID,0,VALID,99.4306,VALID,-0.0169808,VALID,19.9224,VALID,280,VALID,0.519531,
2002-10-11, 00:54:00,VALID,918.965,VALID,0,VALID,99.428,VALID,0.0169808,VALID,19.8764,VALID,282,VALID,0.661595,
2002-10-11, 00:55:00,VALID,918.966,VALID,0,VALID,99.414,VALID,0,VALID,19.8419,VALID,111,VALID,0.784255,
2002-10-11, 00:56:00,VALID,918.967,VALID,0,VALID,99.4217,VALID,0,VALID,19.8023,VALID,137,VALID,0.67508,
2002-10-11, 00:57:00,VALID,918.96,VALID,0,VALID,99.4318,VALID,0.0169808,VALID,19.8324,VALID,132,VALID,0.91723,
2002-10-11, 00:58:00,VALID,918.921,VALID,0,VALID,99.4458,VALID,0,VALID,19.8347,VALID,133,VALID,0.792969,
2002-10-11, 00:59:00,VALID,918.917,VALID,0,VALID,99.4522,VALID,0,VALID,19.8545,VALID,143,VALID,0.702455,
2002-10-11, 01:00:00,VALID,918.9,VALID,0,VALID,99.4585,VALID,0,VALID,19.8704,VALID,146,VALID,0.865402,
2002-10-11, 01:01:00,VALID,918.891,VALID,0,VALID,99.456,VALID,0.0169808,VALID,19.8839,VALID,143,VALID,0.788651,
2002-10-11, 01:02:00,VALID,918.878,VALID,0,VALID,99.4687,VALID,0,VALID,19.8834,VALID,144,VALID,0.650223,
2002-10-11, 01:03:00,VALID,918.863,VALID,0,VALID,99.4624,VALID,0.0169808,VALID,19.8831,VALID,137,VALID,0.687119,
2002-10-11, 01:04:00,VALID,918.854,VALID,0,VALID,99.4649,VALID,0.0509425,VALID,19.8933,VALID,135,VALID,0.620566,
2002-10-11, 01:05:00,VALID,918.84,VALID,0,VALID,99.4624,VALID,0.0339617,VALID,19.8928,VALID,135,VALID,0.546453,
2002-10-11, 01:06:00,VALID,918.82,VALID,0,VALID,99.4636,VALID,0.0339617,VALID,19.8858,VALID,145,VALID,0.821733,
2002-10-11, 01:07:00,VALID,918.789,VALID,0,VALID,99.4598,VALID,0,VALID,19.8965,VALID,145,VALID,0.732936,
2002-10-11, 01:08:00,VALID,918.758,VALID,0,VALID,99.4738,VALID,0.0169808,VALID,19.8868,VALID,134,VALID,0.509046,
2002-10-11, 01:09:00,VALID,918.739,VALID,0,VALID,99.4662,VALID,0.0169808,VALID,19.8868,VALID,122,VALID,0.714343,
2002-10-11, 01:10:00,VALID,918.723,VALID,0,VALID,99.4738,VALID,0.0339617,VALID,19.8839,VALID,98,VALID,0.878405,
2002-10-11, 01:11:00,VALID,918.698,VALID,0,VALID,99.4687,VALID,0.0169808,VALID,19.8868,VALID,85,VALID,0.732897,
2002-10-11, 01:12:00,VALID,918.707,VALID,0,VALID,99.4662,VALID,0.0169808,VALID,19.8839,VALID,82,VALID,0.743164,
2002-10-11, 01:13:00,VALID,918.697,VALID,0,VALID,99.4776,VALID,0.0169808,VALID,19.8866,VALID,65,VALID,0.706696,
2002-10-11, 01:14:00,VALID,918.707,VALID,0,VALID,99.4738,VALID,0,VALID,19.8998,VALID,57,VALID,0.781027,
2002-10-11, 01:15:00,VALID,918.701,VALID,0,VALID,99.4751,VALID,0.0169808,VALID,19.8963,VALID,51,VALID,0.75514,
2002-10-11, 01:16:00,VALID,918.705,VALID,0,VALID,99.4751,VALID,0.0169808,VALID,19.8965,VALID,46,VALID,0.586161,
2002-10-11, 01:17:00,VALID,918.699,VALID,0,VALID,99.4776,VALID,0.0169808,VALID,19.8868,VALID,73,VALID,0.482469,
2002-10-11, 01:18:00,VALID,918.685,VALID,0,VALID,99.4725,VALID,0,VALID,19.8612,VALID,93,VALID,0.786951,
2002-10-11, 01:19:00,VALID,918.663,VALID,0,VALID,99.4675,VALID,0,VALID,19.8555,VALID,113,VALID,0.779983,
2002-10-11, 01:20:00,VALID,918.662,VALID,0,VALID,99.4751,VALID,0,VALID,19.8386,VALID,135,VALID,0.746449,
2002-10-11, 01:21:00,VALID,918.655,VALID,0,VALID,99.4789,VALID,-0.0169808,VALID,19.855,VALID,134,VALID,0.772821,
2002-10-11, 01:22:00,VALID,918.636,VALID,0,VALID,99.47,VALID,0,VALID,19.8585,VALID,132,VALID,0.729441,
2002-10-11, 01:23:00,VALID,918.616,VALID,0,VALID,99.4865,VALID,0,VALID,19.8617,VALID,140,VALID,0.429688,
2002-10-11, 01:24:00,VALID,918.601,VALID,0,VALID,99.4891,VALID,-0.0339617,VALID,19.8645,VALID,145,VALID,0.783253,
2002-10-11, 01:25:00,VALID,918.598,VALID,0,VALID,99.4764,VALID,-0.0169808,VALID,19.8709,VALID,143,VALID,0.404561,
2002-10-11, 01:26:00,VALID,918.589,VALID,0,VALID,99.4827,VALID,0.0169808,VALID,19.8844,VALID,105,VALID,0.739453,
2002-10-11, 01:27:00,VALID,918.579,VALID,0,VALID,99.4891,VALID,0,VALID,19.861,VALID,92,VALID,0.422098,
2002-10-11, 01:28:00,VALID,918.577,VALID,0,VALID,99.4751,VALID,0,VALID,19.8709,VALID,106,VALID,0.917634,
2002-10-11, 01:29:00,VALID,918.571,VALID,0,VALID,99.4802,VALID,0,VALID,19.8548,VALID,110,VALID,0.978824,
2002-10-11, 01:30:00,VALID,918.569,VALID,0,VALID,99.484,VALID,-0.0169808,VALID,19.8553,VALID,115,VALID,1.00223,
2002-10-11, 01:31:00,VALID,918.565,VALID,0,VALID,99.4903,VALID,0,VALID,19.8548,VALID,127,VALID,0.91311,
2002-10-11, 01:32:00,VALID,918.567,VALID,0,VALID,99.4929,VALID,0,VALID,19.858,VALID,141,VALID,0.783361,
2002-10-11, 01:33:00,VALID,918.582,VALID,0,VALID,99.4878,VALID,0,VALID,19.8712,VALID,128,VALID,0.710304,
2002-10-11, 01:34:00,VALID,918.586,VALID,0,VALID,99.4942,VALID,0,VALID,19.8844,VALID,125,VALID,0.918087,
2002-10-11, 01:35:00,VALID,918.606,VALID,0,VALID,99.4916,VALID,0.0169808,VALID,19.8675,VALID,112,VALID,0.828742,
2002-10-11, 01:36:00,VALID,918.616,VALID,0,VALID,99.4878,VALID,0.0169808,VALID,19.8809,VALID,94,VALID,1.36965,
2002-10-11, 01:37:00,VALID,918.634,VALID,0,VALID,99.498,VALID,0,VALID,19.8742,VALID,76,VALID,0.908253,
2002-10-11, 01:38:00,VALID,918.653,VALID,0,VALID,99.4967,VALID,0,VALID,19.8933,VALID,54,VALID,0.829728,
2002-10-11, 01:39:00,VALID,918.667,VALID,0,VALID,99.4967,VALID,0,VALID,19.9097,VALID,47,VALID,1.05785,
2002-10-11, 01:40:00,VALID,918.698,VALID,0,VALID,99.5031,VALID,0,VALID,19.9032,VALID,45,VALID,1.00723,
2002-10-11, 01:41:00,VALID,918.695,VALID,0,VALID,99.4967,VALID,0.0169808,VALID,19.9032,VALID,50,VALID,0.873661,
2002-10-11, 01:42:00,VALID,918.709,VALID,0,VALID,99.5005,VALID,0,VALID,19.894,VALID,40,VALID,0.699107,
2002-10-11, 01:43:00,VALID,918.716,VALID,0,VALID,99.5005,VALID,0.0169808,VALID,19.907,VALID,38,VALID,0.13014,
2002-10-11, 01:44:00,VALID,918.727,VALID,0,VALID,99.5005,VALID,0,VALID,19.9,VALID,38,VALID,0.0129464,
2002-10-11, 01:45:00,VALID,918.741,VALID,0,VALID,99.5069,VALID,0,VALID,19.9,VALID,38,VALID,0,
2002-10-11, 01:46:00,VALID,918.742,VALID,0,VALID,99.5031,VALID,0,VALID,19.8935,VALID,38,VALID,0,
2002-10-11, 01:47:00,VALID,918.756,VALID,0,VALID,99.5018,VALID,0,VALID,19.8933,VALID,38,VALID,0,
2002-10-11, 01:48:00,VALID,918.746,VALID,0,VALID,99.5081,VALID,-0.0169808,VALID,19.9164,VALID,38,VALID,0,
2002-10-11, 01:49:00,VALID,918.733,VALID,0,VALID,99.5107,VALID,0,VALID,19.9065,VALID,38,VALID,0,
2002-10-11, 01:50:00,VALID,918.731,VALID,0,VALID,99.5018,VALID,0.0169808,VALID,19.9358,VALID,38,VALID,0.0349507,
2002-10-11, 01:51:00,VALID,918.711,VALID,0,VALID,99.4992,VALID,0,VALID,19.9455,VALID,24,VALID,0.241987,
2002-10-11, 01:52:00,VALID,918.709,VALID,0,VALID,99.4992,VALID,-0.0169808,VALID,19.9355,VALID,269,VALID,0.445713,
2002-10-11, 01:53:00,VALID,918.699,VALID,0,VALID,99.5094,VALID,0,VALID,19.9355,VALID,258,VALID,0.482475,
2002-10-11, 01:54:00,VALID,918.691,VALID,0,VALID,99.4954,VALID,-0.0169808,VALID,19.9323,VALID,226,VALID,0.571094,
2002-10-11, 01:55:00,VALID,918.673,VALID,0,VALID,99.5018,VALID,0,VALID,19.9102,VALID,226,VALID,0.23192,
2002-10-11, 01:56:00,VALID,918.674,VALID,0,VALID,99.5107,VALID,0,VALID,19.9425,VALID,217,VALID,0.0529018,
2002-10-11, 01:57:00,VALID,918.648,VALID,0,VALID,99.5069,VALID,0,VALID,19.9259,VALID,204,VALID,0.245271,
2002-10-11, 01:58:00,VALID,918.628,VALID,0,VALID,99.5043,VALID,0,VALID,19.9259,VALID,204,VALID,0.0207589,
2002-10-11, 01:59:00,VALID,918.62,VALID,0,VALID,99.5107,VALID,0,VALID,19.9293,VALID,204,VALID,0.000952744,
2002-10-11, 02:00:00,VALID,918.592,VALID,0,VALID,99.5081,VALID,0,VALID,19.936,VALID,204,VALID,0.000211149,
2002-10-11, 02:01:00,VALID,918.566,VALID,0,VALID,99.5196,VALID,0.0169808,VALID,19.9229,VALID,204,VALID,0.170608,
2002-10-11, 02:02:00,VALID,918.562,VALID,0,VALID,99.5107,VALID,0,VALID,19.9256,VALID,228,VALID,0.538352,
2002-10-11, 02:03:00,VALID,918.542,VALID,0,VALID,99.5081,VALID,-0.0509425,VALID,19.9328,VALID,29,VALID,0.621916,
2002-10-11, 02:04:00,VALID,918.521,VALID,0,VALID,99.5081,VALID,-0.0849042,VALID,19.9664,VALID,39,VALID,0.507607,
2002-10-11, 02:05:00,VALID,918.513,VALID,0,VALID,99.5043,VALID,-0.101885,VALID,19.9465,VALID,39,VALID,0.272035,
2002-10-11, 02:06:00,VALID,918.504,VALID,0,VALID,99.5132,VALID,-0.101885,VALID,19.9433,VALID,39,VALID,0.0120192,
2002-10-11, 02:07:00,VALID,918.495,VALID,0,VALID,99.5005,VALID,-0.0849042,VALID,19.9435,VALID,39,VALID,0,
2002-10-11, 02:08:00,VALID,918.487,VALID,0,VALID,99.5005,VALID,-0.0849042,VALID,19.9559,VALID,39,VALID,0,
2002-10-11, 02:09:00,VALID,918.473,VALID,0,VALID,99.5069,VALID,-0.0849042,VALID,19.9557,VALID,39,VALID,0,
2002-10-11, 02:10:00,VALID,918.464,VALID,0,VALID,99.498,VALID,-0.0679233,VALID,19.9467,VALID,39,VALID,0,
2002-10-11, 02:11:00,VALID,918.459,VALID,0,VALID,99.5043,VALID,-0.0849042,VALID,19.9368,VALID,45,VALID,0.489104,
2002-10-11, 02:12:00,VALID,918.448,VALID,0,VALID,99.498,VALID,-0.0849042,VALID,19.9527,VALID,48,VALID,0.972545,
2002-10-11, 02:13:00,VALID,918.445,VALID,0,VALID,99.498,VALID,-0.101885,VALID,19.9629,VALID,42,VALID,1.08594,
2002-10-11, 02:14:00,VALID,918.448,VALID,0,VALID,99.5005,VALID,-0.0679233,VALID,19.9465,VALID,59,VALID,1.01731,
2002-10-11, 02:15:00,VALID,918.435,VALID,0,VALID,99.5081,VALID,-0.0679233,VALID,19.9567,VALID,53,VALID,0.850084,
2002-10-11, 02:16:00,VALID,918.436,VALID,0,VALID,99.4865,VALID,-0.101885,VALID,19.9296,VALID,85,VALID,0.649858,
2002-10-11, 02:17:00,VALID,918.422,VALID,0,VALID,99.5031,VALID,-0.0849042,VALID,19.9371,VALID,82,VALID,0.498766,
2002-10-11, 02:18:00,VALID,918.403,VALID,0,VALID,99.5094,VALID,-0.0169808,VALID,19.9194,VALID,91,VALID,0.493215,
2002-10-11, 02:19:00,VALID,918.379,VALID,0,VALID,99.5107,VALID,0.0169808,VALID,19.9095,VALID,85,VALID,0.132412,
2002-10-11, 02:20:00,VALID,918.359,VALID,0,VALID,99.5132,VALID,0.0169808,VALID,19.9065,VALID,83,VALID,0.23117,
2002-10-11, 02:21:00,VALID,918.346,VALID,0,VALID,99.512,VALID,0,VALID,19.8766,VALID,121,VALID,0.305664,
2002-10-11, 02:22:00,VALID,918.339,VALID,0,VALID,99.512,VALID,0,VALID,19.8771,VALID,125,VALID,0.0804688,
2002-10-11, 02:23:00,VALID,918.317,VALID,0,VALID,99.5145,VALID,0.0169808,VALID,19.8704,VALID,114,VALID,0.735491,
2002-10-11, 02:24:00,VALID,918.327,VALID,0,VALID,99.5069,VALID,0.0169808,VALID,19.8578,VALID,94,VALID,0.235268,
2002-10-11, 02:25:00,VALID,918.313,VALID,0,VALID,99.5005,VALID,0.0169808,VALID,19.8675,VALID,97,VALID,0.347451,
2002-10-11, 02:26:00,VALID,918.292,VALID,0,VALID,99.5107,VALID,0,VALID,19.8548,VALID,98,VALID,0.673437,
2002-10-11, 02:27:00,VALID,918.277,VALID,0,VALID,99.5183,VALID,0,VALID,19.855,VALID,134,VALID,0.0560213,
2002-10-11, 02:28:00,VALID,918.261,VALID,0,VALID,99.5107,VALID,0,VALID,19.8675,VALID,113,VALID,0.363809,
2002-10-11, 02:29:00,VALID,918.268,VALID,0,VALID,99.5145,VALID,0,VALID,19.8799,VALID,103,VALID,0.0384291,
2002-10-11, 02:30:00,VALID,918.24,VALID,0,VALID,99.5209,VALID,0,VALID,19.897,VALID,128,VALID,0.673059,
2002-10-11, 02:31:00,VALID,918.225,VALID,0,VALID,99.5132,VALID,0,VALID,19.8771,VALID,114,VALID,0.823191,
2002-10-11, 02:32:00,VALID,918.204,VALID,0,VALID,99.512,VALID,0.0169808,VALID,19.8704,VALID,120,VALID,1.07155,
2002-10-11, 02:33:00,VALID,918.188,VALID,0,VALID,99.512,VALID,-0.0339617,VALID,19.8553,VALID,112,VALID,0.977764,
2002-10-11, 02:34:00,VALID,918.184,VALID,0,VALID,99.5132,VALID,-0.0849042,VALID,19.8461,VALID,131,VALID,0.642428,
2002-10-11, 02:35:00,VALID,918.178,VALID,0,VALID,99.5081,VALID,-0.0679233,VALID,19.8531,VALID,115,VALID,0.973606,
2002-10-11, 02:36:00,VALID,918.177,VALID,0,VALID,99.517,VALID,-0.0849042,VALID,19.8302,VALID,104,VALID,1.20684,
2002-10-11, 02:37:00,VALID,918.177,VALID,0,VALID,99.512,VALID,-0.0679233,VALID,19.8262,VALID,76,VALID,0.884152,
2002-10-11, 02:38:00,VALID,918.163,VALID,0,VALID,99.5069,VALID,-0.0679233,VALID,19.8394,VALID,77,VALID,0.550446,
2002-10-11, 02:39:00,VALID,918.127,VALID,0,VALID,99.5031,VALID,-0.0509425,VALID,19.8391,VALID,67,VALID,0.666941,
2002-10-11, 02:40:00,VALID,918.13,VALID,0,VALID,99.5056,VALID,-0.0339617,VALID,19.8458,VALID,82,VALID,1.13705,
2002-10-11, 02:41:00,VALID,918.119,VALID,0,VALID,99.517,VALID,-0.0849042,VALID,19.8329,VALID,53,VALID,0.879764,
2002-10-11, 02:42:00,VALID,918.113,VALID,0,VALID,99.5107,VALID,-0.101885,VALID,19.8528,VALID,49,VALID,0.565245,
2002-10-11, 02:43:00,VALID,918.118,VALID,0,VALID,99.498,VALID,-0.0679233,VALID,19.8466,VALID,86,VALID,1.22171,
2002-10-11, 02:44:00,VALID,918.123,VALID,0,VALID,99.5043,VALID,-0.0679233,VALID,19.8071,VALID,85,VALID,0.956676,
2002-10-11, 02:45:00,VALID,918.136,VALID,0,VALID,99.5031,VALID,-0.0849042,VALID,19.8275,VALID,105,VALID,0.846834,
2002-10-11, 02:46:00,VALID,918.129,VALID,0,VALID,99.5043,VALID,-0.0849042,VALID,19.7971,VALID,126,VALID,0.61287,
2002-10-11, 02:47:00,VALID,918.129,VALID,0,VALID,99.5158,VALID,-0.0679233,VALID,19.7976,VALID,132,VALID,0.527644,
2002-10-11, 02:48:00,VALID,918.138,VALID,0,VALID,99.5285,VALID,-0.0849042,VALID,19.7971,VALID,116,VALID,0.602364,
2002-10-11, 02:49:00,VALID,918.125,VALID,0,VALID,99.5158,VALID,-0.0509425,VALID,19.7845,VALID,114,VALID,0.578336,
2002-10-11, 02:50:00,VALID,918.118,VALID,0,VALID,99.5247,VALID,-0.0849042,VALID,19.7872,VALID,137,VALID,0.252734,
2002-10-11, 02:51:00,VALID,918.13,VALID,0,VALID,99.5259,VALID,-0.101885,VALID,19.7874,VALID,159,VALID,0.425223,
2002-10-11, 02:52:00,VALID,918.141,VALID,0,VALID,99.5196,VALID,-0.0679233,VALID,19.8038,VALID,147,VALID,0.654018,
2002-10-11, 02:53:00,VALID,918.151,VALID,0,VALID,99.5247,VALID,-0.0849042,VALID,19.8011,VALID,140,VALID,0.426604,
2002-10-11, 02:54:00,VALID,918.159,VALID,0,VALID,99.5259,VALID,-0.0849042,VALID,19.7944,VALID,141,VALID,0.455134,
2002-10-11, 02:55:00,VALID,918.171,VALID,0,VALID,99.5221,VALID,-0.0849042,VALID,19.8106,VALID,130,VALID,0.507813,
2002-10-11, 02:56:00,VALID,918.186,VALID,0,VALID,99.5285,VALID,-0.0509425,VALID,19.7942,VALID,109,VALID,0.423564,
2002-10-11, 02:57:00,VALID,918.181,VALID,0,VALID,99.5259,VALID,-0.0849042,VALID,19.8043,VALID,126,VALID,0.826858,
2002-10-11, 02:58:00,VALID,918.186,VALID,0,VALID,99.5247,VALID,-0.0509425,VALID,19.7845,VALID,128,VALID,0.589015,
2002-10-11, 02:59:00,VALID,918.193,VALID,0,VALID,99.531,VALID,-0.101885,VALID,19.7949,VALID,124,VALID,0.134046,
2002-10-11, 03:00:00,VALID,918.195,VALID,0,VALID,99.5285,VALID,-0.0849042,VALID,19.8043,VALID,96,VALID,0.550781,
2002-10-11, 03:01:00,VALID,918.184,VALID,0,VALID,99.5259,VALID,-0.0509425,VALID,19.8006,VALID,109,VALID,0.361579,
2002-10-11, 03:02:00,VALID,918.178,VALID,0,VALID,99.5209,VALID,-0.0679233,VALID,19.8041,VALID,67,VALID,0.248598,
2002-10-11, 03:03:00,VALID,918.172,VALID,0,VALID,99.5209,VALID,-0.0169808,VALID,19.8135,VALID,97,VALID,0.34924,
2002-10-11, 03:04:00,VALID,918.162,VALID,0,VALID,99.5132,VALID,0.0339617,VALID,19.7996,VALID,124,VALID,0.449023,
2002-10-11, 03:05:00,VALID,918.139,VALID,0,VALID,99.5234,VALID,0.0509425,VALID,19.776,VALID,147,VALID,0.325,
2002-10-11, 03:06:00,VALID,918.123,VALID,0,VALID,99.5234,VALID,0.0339617,VALID,19.7897,VALID,145,VALID,0,
2002-10-11, 03:07:00,VALID,918.109,VALID,0,VALID,99.5183,VALID,0.0509425,VALID,19.7996,VALID,145,VALID,0.000822368,
2002-10-11, 03:08:00,VALID,918.105,VALID,0,VALID,99.5183,VALID,0.0509425,VALID,19.8252,VALID,184,VALID,0.0970982,
2002-10-11, 03:09:00,VALID,918.083,VALID,0,VALID,99.5183,VALID,0.0679233,VALID,19.8443,VALID,274,VALID,0.42702,
2002-10-11, 03:10:00,VALID,918.076,VALID,0,VALID,99.5209,VALID,0.0339617,VALID,19.8637,VALID,299,VALID,0.395904,
2002-10-11, 03:11:00,VALID,918.071,VALID,0,VALID,99.5234,VALID,0.0509425,VALID,19.8637,VALID,312,VALID,0.594383,
2002-10-11, 03:12:00,VALID,918.073,VALID,0,VALID,99.5259,VALID,0.0509425,VALID,19.8476,VALID,318,VALID,0.646544,
2002-10-11, 03:13:00,VALID,918.063,VALID,0,VALID,99.5209,VALID,0.0509425,VALID,19.8602,VALID,328,VALID,0.268092,
2002-10-11, 03:14:00,VALID,918.047,VALID,0,VALID,99.5247,VALID,0,VALID,19.8995,VALID,349,VALID,0.00822368,
2002-10-11, 03:15:00,VALID,918.045,VALID,0,VALID,99.5209,VALID,0.0679233,VALID,19.9055,VALID,349,VALID,0,
2002-10-11, 03:16:00,VALID,918.05,VALID,0,VALID,99.5298,VALID,0.0849042,VALID,19.8988,VALID,357,VALID,0,
2002-10-11, 03:17:00,VALID,918.046,VALID,0,VALID,99.5234,VALID,0.0509425,VALID,19.9189,VALID,9,VALID,0,
2002-10-11, 03:18:00,VALID,918.026,VALID,0,VALID,99.5183,VALID,-0.0509425,VALID,19.8973,VALID,9,VALID,0,
2002-10-11, 03:19:00,VALID,918.042,VALID,0,VALID,99.5209,VALID,-0.0679233,VALID,19.8625,VALID,33,VALID,0,
2002-10-11, 03:20:00,VALID,918.043,VALID,0,VALID,99.5209,VALID,-0.0849042,VALID,19.8461,VALID,80,VALID,0,
2002-10-11, 03:21:00,VALID,918.035,VALID,0,VALID,99.5234,VALID,-0.0679233,VALID,19.8272,VALID,107,VALID,0.00102796,
2002-10-11, 03:22:00,VALID,918.034,VALID,0,VALID,99.5221,VALID,-0.0849042,VALID,19.8332,VALID,123,VALID,0.356473,
2002-10-11, 03:23:00,VALID,918.031,VALID,0,VALID,99.5221,VALID,-0.0849042,VALID,19.8463,VALID,100,VALID,0.44112,
2002-10-11, 03:24:00,VALID,918.017,VALID,0,VALID,99.517,VALID,-0.0849042,VALID,19.8371,VALID,133,VALID,0.560811,
2002-10-11, 03:25:00,VALID,917.996,VALID,0,VALID,99.5145,VALID,-0.101885,VALID,19.8108,VALID,140,VALID,0.479941,
2002-10-11, 03:26:00,VALID,917.976,VALID,0,VALID,99.5209,VALID,-0.0679233,VALID,19.7942,VALID,131,VALID,0.333097,
2002-10-11, 03:27:00,VALID,917.956,VALID,0.2,VALID,99.5221,VALID,-0.0679233,VALID,19.7942,VALID,127,VALID,0.520354,
2002-10-11, 03:28:00,VALID,917.947,VALID,0,VALID,99.5158,VALID,-0.0339617,VALID,19.7842,VALID,121,VALID,0.556743,
2002-10-11, 03:29:00,VALID,917.919,VALID,0,VALID,99.531,VALID,-0.0339617,VALID,19.7884,VALID,102,VALID,0.59375,
2002-10-11, 03:30:00,VALID,917.901,VALID,0,VALID,99.5234,VALID,-0.101885,VALID,19.7815,VALID,100,VALID,0.555088,
2002-10-11, 03:31:00,VALID,917.903,VALID,0,VALID,99.5132,VALID,-0.0509425,VALID,19.7748,VALID,109,VALID,0.661951,
2002-10-11, 03:32:00,VALID,917.915,VALID,0,VALID,99.5234,VALID,-0.0849042,VALID,19.7884,VALID,109,VALID,0.696875,
2002-10-11, 03:33:00,VALID,917.916,VALID,0,VALID,99.5247,VALID,-0.0339617,VALID,19.7872,VALID,118,VALID,1.14397,
2002-10-11, 03:34:00,VALID,917.918,VALID,0,VALID,99.5209,VALID,0.0339617,VALID,19.7773,VALID,117,VALID,0.833705,
2002-10-11, 03:35:00,VALID,917.947,VALID,0,VALID,99.5221,VALID,0.0339617,VALID,19.7867,VALID,121,VALID,0.622944,